Main page
METAR-TAF:

METAR-TAF

Airports :

Teruel Airport

Teruel, Spain

latitude: 40-24-43N, longitude: 01-13-03W, elevation: 1030 m

Current weather observation

The report was made 27 minutes ago, at 23:30 UTC
Wind 5 kt from the East/Southeast
Temperature 11°C
Humidity 94%
Pressure 1021 hPa
Visibility 10 km or more
no clouds below 1500 m and no cumulonimbus

METAR: LETL 222330Z AUTO 12005KT CAVOK 11/10 Q1021

Time: 01:57 (23:57 UTC)


TAF: missing

Weather observations and forecasts of more than 4000 airports (METAR and TAF reports).

The available stations are represented by yellow and red dots on the map.

Hover mouse over dot to see the name of the station.

Then click to see weather observations and forecasts.

To change the map : click on the green buttons with a black cross to zoom in, on the green button with a dash to zoom out, or on the green arrows for adjacent maps.


METAR-TAF: